Regional Weather Roundup
Issued by NWS Jackson, KY

Home | Current Version | Previous Version | Text Only | Print | Product List | Glossary Off
Versions: 1 2 3 4 5 6 7 8 9 10 11 12 13 14 15 16 17 18 19 20 21 22 23 24 25 26 27 28 29 30 31 32 33 34 35 36 37 38 39 40 41 42 43 44 45 46 47 48 49 50

000
ASUS43 KJKL 221110
RWRJKL

EAST KENTUCKY HOURLY WEATHER ROUNDUP
NATIONAL WEATHER SERVICE JACKSON KY
600 AM EST WED FEB 22 2017

NOTE: "FAIR" INDICATES FEW OR NO CLOUDS BELOW 12,000 FEET WITH
NO SIGNIFICANT WEATHER AND/OR OBSTRUCTIONS TO VISIBILITY.

* THESE REPORTS ARE NOT UNDER NWS QUALITY CONTROL AND MAY NOT
  REPORT WEATHER SUCH AS PRECIPITATION AND FOG.

KYZ079-080-083-085-087-088-110-112-115-119-120-221200
...EASTERN KENTUCKY...

CITY           SKY/WX    TMP DP  RH WIND       PRES   REMARKS
JACKSON        LGT RAIN  53  52  96 CALM      29.96S FOG
LONDON         LGT RAIN  54  52  93 VRB6      29.93F FOG
SOMERSET*      LGT RAIN  54  54 100 S5        29.94S
MONTICELLO*    LGT RAIN  55  53  93 E8        29.95S
WILLIAMSBURG*  CLOUDY    54  54 100 SE6       29.95S
MIDDLESBORO*   DRIZZLE   53  53 100 CALM      29.98R
HARLAN APT*    CLOUDY    52  50  93 NE3       29.98R
PIKE CO APT*   RAIN      52  52 100 N6        29.98R
BIG SANDY APT* FOG       52  52 100 CALM      29.97S VSB 1/2
MOREHEAD APT*  CLOUDY    55  54  94 CALM      29.96S FOG
ASHLAND*       CLOUDY    54  52  94 CALM      29.95S VSB 1/2
$$

KYZ035-036-041-042-044-050-067-078-099-221200
...CENTRAL KENTUCKY...

CITY           SKY/WX    TMP DP  RH WIND       PRES   REMARKS
MT STERLING*   CLOUDY    54  54 100 SE3       29.96S FOG
FLEMING/MASON* LGT RAIN  54  54 100 SE3       29.96S VSB 1/4
DANVILLE*      CLOUDY    54  54 100 CALM      29.95S
LEXINGTON      CLOUDY    56  53  90 SE6       29.94R
FRANKFORT      CLOUDY    57  53  86 S3        29.92S
LOUISVILLE     CLOUDY    58  54  86 SE6       29.91R
LEBANON*         N/A     55  55 100 SE13      29.92F
GLASGOW*       CLOUDY   N/A N/A N/A E5        29.93S HAZE
BOWLING GREEN  FOG       55  54  96 CALM      29.93R VSB 1/2
$$

KYZ091>093-OHZ055-061-077-WVZ005-015-034-035-042-221200
...SOUTHERN OHIO/WEST VIRGINIA...

CITY           SKY/WX    TMP DP  RH WIND       PRES   REMARKS
COVINGTON      CLOUDY    56  55  97 S5        29.92R
COLUMBUS       CLOUDY    55  53  93 S3        29.94R
DAYTON         CLOUDY    55  54  96 S10       29.93R FOG
WILMINGTON     CLOUDY    54  54 100 S5        29.93S FOG
HUNTINGTON     CLOUDY    54  52  93 E3        29.96S FOG
CHARLESTON     LGT RAIN  53  50  89 CALM      29.98R
PINEVILLE*     RAIN      49  47  90 MISG      30.05R
BECKLEY        RAIN      47  43  86 SE7       30.01S
BLUEFIELD      LGT RAIN  45  42  89 E3        30.02R
LOGAN CO APT*  PTSUNNY   52  50  93 CALM      29.98S FOG
$$

VAZ002-007-008-TNZ017-027-036-066-071-221200
...SOUTHWEST VIRGINIA/EAST TENNESSEE...

CITY           SKY/WX    TMP DP  RH WIND       PRES   REMARKS
WISE*          LGT RAIN  50  45  81 CALM      30.01R
JONESVILLE*    LGT RAIN  52  52 100 CALM      30.00S
ABINGDON*      LGT RAIN  54  43  66 E5        30.00R
BRISTOL        LGT RAIN  51  47  86 CALM      29.98R
MORRISTOWN*    CLOUDY    57  48  72 NE6       29.94R
SEVIERVILLE*   CLOUDY    52  48  87 CALM      29.94R
KNOXVILLE      LGT RAIN  56  50  80 NE3       29.93R
LAFOLLETTE*    FOG       54  54 100 CALM      29.98S VSB 3/4
OAK RIDGE      LGT RAIN  55  53  93 CALM      29.95R
CROSSVILLE     CLOUDY    54  52  93 E3        29.95R
NASHVILLE      LGT RAIN  55  54  96 S3        29.90S FOG
$$

...KEY TO REMARKS...
VSB - VISIBILITY IN MILES
WCI - WIND CHILL INDEX
HX  - HEAT INDEX

$$



USA.gov is the U.S. government's official web portal to all federal, state and local government web resources and services.